Home   Weather   Taichung   Past weeks
Flag for Taiwan

Past Weather in Taichung, Taiwan — Yesterday and Last 2 Weeks

Now
73 °F

Passing clouds.


Feels Like: 75 °F
Forecast: 88 / 68 °F
Wind: 12 mph from East

Location: Chiang Kai Shek

Current Time: Oct 24, 2019 at 2:13:34 am

Latest Report: Oct 24, 2019 at 1:30 am


Visibility: N/A

Pressure: 29.95 "Hg

Humidity: 74%

Dew Point: 64 °F

Location of TaichungLocation

Past Weather in Taichung — Graph

°F

Taichung Temperature Yesterday

Maximum temperature yesterday: 81 °F (at 12:00 pm)
Minimum temperature yesterday: 72 °F (at 1:30 am)
Average temperature yesterday: 75 °F

High & Low Weather Summary for the Past Weeks

 TemperatureHumidityPressure
High86 °F (Oct 12, 12:00 pm)94% (Oct 16, 4:30 pm)30.18 "Hg (Oct 16, 4:30 pm)
Low66 °F (Oct 22, 1:00 am)51% (Oct 22, 12:00 pm)29.83 "Hg (Oct 11, 1:30 pm)
Average76 °F71%30.00 "Hg
* Reported Oct 9 12:00 am — Oct 24 12:30 am, Taichung. Weather by CustomWeather, © 2019

Note: Actual official high and low records may vary slightly from our data, if they occured in-between our weather recording intervals... More about our weather records

Advertising

Taichung Weather History for the Previous 24 Hours

Scroll right to see more
 ConditionsComfort  
Time TempWeatherWind HumidityBarometerVisibility
12:30 am
Thu, Oct 24
73 °FPassing clouds.13 mph78%29.95 "HgN/A
12:00 am73 °FPartly cloudy.13 mph78%29.95 "HgN/A
11:30 pm
Wed, Oct 23
73 °FPassing clouds.7 mph74%29.95 "HgN/A
11:00 pm73 °FPartly cloudy.7 mph74%29.95 "HgN/A
10:30 pm73 °FPartly cloudy.8 mph74%29.95 "HgN/A
10:00 pm73 °FPartly cloudy.7 mph74%29.95 "HgN/A
9:30 pm73 °FPartly cloudy.7 mph74%29.95 "HgN/A
9:00 pm73 °FPassing clouds.7 mph74%29.95 "HgN/A
8:30 pm73 °FPassing clouds.10 mph78%29.95 "HgN/A
8:00 pm75 °FPassing clouds.10 mph74%29.95 "HgN/A
7:30 pm75 °FPassing clouds.8 mph74%29.95 "HgN/A
7:00 pm75 °FPartly cloudy.10 mph74%29.95 "HgN/A
6:30 pm73 °FPartly cloudy.8 mph74%29.92 "HgN/A
6:00 pm75 °FPartly cloudy.9 mph69%29.92 "HgN/A
5:30 pm75 °FPartly cloudy.9 mph74%29.92 "HgN/A
5:00 pm75 °FBroken clouds.12 mph74%29.92 "HgN/A
4:30 pm75 °FBroken clouds.12 mph69%29.89 "HgN/A
4:00 pm75 °FBroken clouds.14 mph74%29.89 "HgN/A
3:30 pm75 °FBroken clouds.14 mph74%29.89 "HgN/A
3:00 pm77 °FBroken clouds.13 mph69%29.89 "HgN/A
2:30 pm77 °FBroken clouds.13 mph69%29.89 "HgN/A
2:00 pm79 °FBroken clouds.14 mph65%29.89 "HgN/A
1:30 pm77 °FBroken clouds.15 mph65%29.89 "HgN/A
1:00 pm79 °FBroken clouds.15 mph58%29.89 "HgN/A
12:30 pm81 °FPartly sunny.15 mph54%29.89 "HgN/A
12:00 pm81 °FPartly sunny.15 mph54%29.89 "HgN/A
11:30 am79 °FPartly sunny.15 mph58%29.92 "HgN/A
11:00 am77 °FBroken clouds.15 mph61%29.92 "HgN/A
10:30 am77 °FBroken clouds.15 mph65%29.92 "HgN/A
10:00 am77 °FBroken clouds.15 mph65%29.95 "HgN/A
9:30 am79 °FBroken clouds.15 mph65%29.92 "HgN/A
9:00 am77 °FPartly sunny.15 mph69%29.92 "HgN/A
8:30 am75 °FPartly sunny.14 mph74%29.92 "HgN/A
8:00 am75 °FBroken clouds.14 mph74%29.92 "HgN/A
7:30 am75 °FPartly sunny.14 mph74%29.89 "HgN/A
7:00 am75 °FPartly sunny.13 mph74%29.89 "HgN/A
6:30 am73 °FBroken clouds.15 mph78%29.89 "HgN/A
6:00 am73 °FBroken clouds.13 mph78%29.89 "HgN/A
5:30 am73 °FPassing clouds.9 mph78%29.86 "HgN/A
5:00 am73 °FPassing clouds.15 mph78%29.86 "HgN/A
4:30 am73 °FPassing clouds.10 mph78%29.86 "HgN/A
4:00 am73 °FPassing clouds.10 mph78%29.86 "HgN/A
3:30 am73 °FPassing clouds.9 mph78%29.86 "HgN/A
3:00 am73 °FPassing clouds.9 mph78%29.86 "HgN/A
2:30 am72 °FPassing clouds.9 mph78%29.86 "HgN/A
2:00 am72 °FPassing clouds.7 mph78%29.86 "HgN/A
Weather by CustomWeather, © 2019

See weather overview